Tracking 30102 objects as of 12-Dec-2024
HD Live streaming from Space Station
objects crossing your sky now

SL-12 R/B(2)

Track SL-12 R/B(2) now!


NORAD ID: 27404
Int'l Code: 2002-016B
Perigee: 3,439.3 km
Apogee: 35,952.1 km
Inclination: 25.2 °
Period: 698.1 minutes
Semi major axis: 26066 km
RCS: 19.7997 m2 (large)
Launch date: March 30, 2002
Source: Commonwealth of Independent States (former USSR) (CIS)
Launch site: TYURATAM MISSILE AND SPACE COMPLEX (TTMTR)

Note: This is a ROCKET BODY
Your satellite tracking list
Your tracking list is empty




NASA's NSSDC Master Catalog

Two Line Element Set (TLE):
1 27404U 02016B   24342.16447945  .00000033  00000-0  00000-0 0  9997
2 27404  25.2404  63.6153 6236472 354.5920   1.0726  2.06288075171012
Source of the keplerian elements: AFSPC